Theta_e
285 285 285 284 284 282 282 281 280 279 278 277 277 276 276 276 276 275 276 276 274 274 275 275 275 275 274 274 274 274 274 274 271 273 276 276 275 274 276 277 278 278 280
285 284 284 282 281 281 281 279 278 278 277 277 276 276 275 275 274 274 273 274 273 272 273 273 272 273 271 272 271 271 271 272 270 268 271 272 272 273 273 274 275 277 277
283 282 282 281 280 280 278 277 277 276 276 276 275 274 274 273 273 273 272 272 272 272 271 271 270 270 270 270 270 270 270 271 271 269 268 271 271 272 272 273 274 275 277
283 282 281 280 280 278 277 276 276 275 274 274 273 272 272 272 272 272 272 271 271 271 271 271 271 271 270 269 270 269 270 269 269 269 268 269 270 272 272 271 271 274 275
283 282 281 280 279 277 276 276 274 274 273 273 272 271 271 271 271 271 271 271 270 270 271 271 272 272 273 274 272 272 271 270 270 270 270 271 271 272 272 273 272 273 275
282 281 280 278 276 275 275 273 273 272 272 272 271 270 269 271 274 276 273 271 272 271 271 272 272 272 273 275 276 277 276 273 272 271 272 272 272 273 273 273 273 273 271
281 280 277 276 275 274 274 273 272 271 271 271 270 270 270 271 276 277 277 274 273 272 272 271 271 273 273 273 275 277 277 277 277 275 272 273 273 274 274 273 273 272 272
281 279 276 275 274 273 272 272 271 270 270 269 269 270 270 271 276 277 276 274 273 272 272 272 272 273 274 274 273 273 274 274 275 275 274 274 274 276 275 274 273 273 274
279 277 275 275 273 272 271 271 270 269 269 269 269 268 269 270 276 276 275 273 273 272 273 273 273 273 275 277 274 273 273 273 277 278 278 279 280 280 280 277 275 272 271
278 277 275 274 273 271 271 270 269 269 268 269 268 267 268 266 273 275 275 273 267 270 272 273 275 274 276 277 275 273 270 270 271 272 274 274 274 274 277 275 275 273 273
276 274 273 273 272 271 270 270 268 268 269 268 267 267 266 266 268 275 276 272 270 269 271 271 273 275 276 278 277 272 270 274 272 267 267 269 270 271 273 276 277 275 273
274 272 271 271 271 269 268 267 267 267 266 266 266 266 268 268 270 274 275 276 275 269 267 272 271 275 275 275 273 273 275 273 266 266 265 266 268 269 271 273 275 277 278
271 271 270 268 268 267 266 265 265 265 265 265 266 266 267 269 269 274 275 274 275 272 272 272 273 273 272 270 271 272 270 266 266 264 264 266 269 270 271 271 272 274 275
269 268 267 266 265 266 266 266 266 265 266 267 267 267 267 267 267 268 268 268 272 271 270 265 268 268 268 268 266 267 266 266 266 265 265 267 269 269 268 270 269 271 271
270 267 266 266 265 264 266 266 266 268 269 268 268 267 266 266 267 269 269 268 269 269 258 256 257 261 262 263 263 264 265 265 265 265 265 265 267 268 267 269 269 269 267
268 266 266 265 265 265 265 266 271 271 273 274 273 269 268 271 273 275 274 273 271 270 256 252 255 259 260 261 261 262 263 264 264 265 265 266 266 266 267 268 267 266 266
269 267 266 265 265 265 265 266 265 271 274 274 274 273 272 273 274 274 273 270 269 263 252 250 253 256 258 260 260 261 261 263 264 264 264 265 267 267 266 265 265 265 264
270 267 265 265 265 265 266 267 267 267 267 268 273 273 273 273 273 273 270 264 257 255 248 247 248 251 256 257 258 259 260 261 262 263 263 265 267 267 265 264 264 263 263
269 266 266 265 266 266 266 267 267 267 266 265 267 270 271 273 273 271 265 258 253 250 247 246 248 251 255 256 257 258 259 260 261 262 263 264 267 266 264 264 264 264 264
269 267 266 266 265 265 265 265 264 264 263 263 264 261 261 261 258 256 255 254 250 248 249 246 249 249 251 253 255 257 258 259 260 262 263 266 267 266 264 264 264 263 263
267 266 266 265 265 265 265 264 263 263 262 262 261 261 263 259 257 255 253 251 249 248 246 246 248 247 251 253 254 256 257 259 260 263 263 266 266 264 265 265 264 264 264
266 265 264 264 264 264 263 263 263 262 261 260 260 263 267 258 256 254 253 251 248 248 245 246 247 247 251 253 254 256 257 258 261 263 263 266 265 265 265 264 263 264 263
264 263 263 263 263 262 262 261 261 260 260 259 259 259 257 255 253 252 251 248 249 247 246 246 247 248 251 253 255 255 256 258 261 263 266 265 265 264 264 263 263 263 262
262 262 262 261 261 260 260 259 259 259 258 257 256 256 255 253 251 251 249 248 248 243 245 246 247 247 250 252 253 255 257 259 262 266 267 265 264 264 264 263 263 263 263
261 261 260 259 259 259 258 258 257 256 255 255 254 254 253 252 251 248 247 247 244 244 246 247 247 248 249 250 251 253 256 260 264 269 267 266 264 264 264 263 263 263 263
260 259 259 258 258 257 257 256 255 255 255 254 254 253 252 252 250 248 247 245 246 246 246 247 246 247 249 251 253 257 260 264 268 269 267 265 264 263 263 263 263 263 262
Wind_Speed
14 15 15 14 14 12 13 12 12 11 11 11 11 10 9 7 7 6 4 3 3 1 3 4 5 3 3 3 3 4 6 7 14 24 12 13 17 18 15 15 17 18 17
13 13 14 11 11 12 12 10 11 12 10 12 11 10 9 9 7 6 5 3 3 4 5 5 5 4 3 5 4 7 8 8 11 24 18 16 17 17 17 19 16 15 16
12 13 13 13 13 14 11 11 11 12 10 10 9 9 8 8 7 6 5 5 5 5 5 6 6 5 7 6 7 7 8 10 10 14 22 15 16 15 16 17 18 19 15
14 15 16 16 15 13 12 13 13 12 12 10 8 8 8 8 8 6 6 6 5 5 6 6 7 9 9 9 8 10 11 11 12 14 17 18 15 16 15 15 18 14 16
16 16 17 14 14 13 14 13 11 12 10 10 10 9 8 7 6 8 8 6 6 6 6 7 8 10 16 16 10 10 12 11 11 13 15 16 16 15 16 12 16 17 16
16 17 15 15 15 15 15 15 14 13 12 11 10 11 10 7 13 14 11 7 7 8 6 7 8 10 15 22 23 25 22 15 16 14 16 17 22 17 16 16 16 17 21
15 14 15 15 16 16 16 16 16 15 13 11 10 9 9 7 14 14 14 8 7 7 7 8 9 9 12 13 19 26 24 28 31 22 23 21 24 19 19 21 20 20 21
15 15 15 17 17 15 15 16 15 14 14 13 12 11 10 8 14 14 13 7 7 8 8 9 11 12 12 13 16 15 17 18 19 17 21 24 22 21 20 21 23 24 22
16 18 18 18 18 17 16 16 13 13 12 11 10 11 10 8 19 15 12 7 8 8 8 9 10 12 16 22 16 16 17 18 18 29 35 38 39 39 35 18 15 16 19
17 16 15 16 18 19 17 16 13 12 11 9 9 8 9 8 14 16 14 6 6 5 7 10 12 15 19 23 15 15 15 17 18 17 16 16 23 24 36 27 19 19 17
11 13 14 14 15 14 14 13 13 13 12 11 10 9 9 8 10 15 16 6 6 5 5 4 6 17 21 23 24 11 14 22 18 14 15 13 14 16 14 15 17 17 18
11 12 13 13 11 11 14 11 13 13 13 11 11 8 7 9 12 16 14 11 10 5 4 3 7 18 22 22 17 21 26 22 11 12 13 13 14 14 13 14 19 19 18
11 11 12 12 11 12 15 14 11 11 11 10 10 8 8 7 6 15 14 9 5 2 3 7 14 16 17 14 18 22 17 10 11 12 14 14 14 15 19 18 18 22 23
11 10 11 13 12 11 9 10 11 11 10 10 9 9 8 7 6 5 3 3 4 2 1 2 7 10 12 12 9 11 9 9 11 13 13 14 15 15 14 13 15 14 15
13 14 15 10 12 12 12 12 12 10 11 12 10 10 10 9 7 11 8 5 5 4 3 2 3 4 5 6 7 8 9 10 11 12 13 14 15 15 15 13 14 14 16
13 11 10 11 15 15 13 11 18 16 18 18 19 15 7 12 15 13 10 8 5 7 3 1 3 4 5 7 8 9 9 12 11 13 14 14 15 15 15 13 14 14 15
14 14 11 12 12 12 12 14 15 18 23 22 22 24 18 15 13 12 10 9 7 6 2 0 4 3 6 7 8 9 11 11 15 13 14 16 16 15 18 15 14 14 15
14 17 14 14 13 13 14 12 12 15 15 12 18 18 21 18 16 12 14 9 3 3 1 0 4 3 6 7 8 9 10 11 12 14 15 16 16 16 16 15 14 15 15
14 12 11 11 11 13 12 12 11 11 12 11 10 15 13 18 16 15 9 3 2 3 0 2 4 4 6 7 8 9 10 11 13 14 14 16 17 16 17 16 16 21 21
12 15 14 12 11 11 11 11 9 10 11 11 9 9 5 5 4 3 2 3 2 3 0 3 4 5 5 7 8 8 10 11 13 13 15 15 17 16 17 18 16 17 16
9 11 14 12 12 11 11 12 11 12 10 9 7 8 13 7 7 5 3 3 4 1 2 3 5 4 4 7 7 8 10 11 13 14 15 16 18 18 17 16 17 16 16
10 12 12 12 12 12 12 11 11 12 11 10 9 8 18 6 5 5 3 2 2 3 3 4 6 4 5 6 8 9 10 13 13 14 15 18 17 18 18 18 17 16 16
11 13 12 11 11 16 13 12 12 12 11 10 7 7 6 5 5 4 3 1 2 4 3 4 5 4 4 5 7 8 10 13 13 15 15 18 18 18 19 18 19 18 17
10 11 12 11 11 11 12 12 11 13 12 10 8 6 6 5 4 4 1 1 4 4 3 4 5 5 5 7 8 9 10 13 13 14 18 17 17 21 19 19 19 23 19
9 10 10 11 11 11 12 11 11 10 9 9 7 6 4 4 4 3 2 3 4 4 4 5 5 4 8 12 13 15 17 24 22 14 13 17 20 24 21 18 21 20 21
10 10 10 9 10 10 10 10 10 9 8 7 6 5 4 4 3 2 3 3 4 4 6 6 5 7 10 11 12 16 21 23 21 20 13 13 17 18 18 21 28 19 22
Wind_Direction
197 195 193 195 190 180 187 185 168 155 155 154 153 153 156 150 138 147 161 178 197 183 253 254 275 314 320 307 298 278 269 265 271 290 290 300 300 301 303 303 296 289 285
194 192 198 183 178 183 184 170 156 158 157 157 157 154 158 153 149 146 152 150 189 231 258 264 278 296 285 271 267 266 261 267 271 282 294 297 295 301 295 291 287 282 284
182 180 184 182 181 185 172 160 160 150 155 154 154 156 155 144 138 137 153 181 209 232 250 264 278 277 264 254 249 257 262 259 262 273 286 288 293 293 291 285 286 287 280
181 183 186 187 183 178 160 156 158 157 158 155 154 145 145 143 144 163 177 190 206 227 241 255 262 261 258 260 256 252 253 252 252 257 268 282 281 285 279 287 286 277 282
184 187 192 182 171 162 159 158 152 152 159 152 145 146 145 149 164 172 182 182 201 226 242 249 252 253 260 257 255 256 255 256 255 258 264 271 277 281 279 283 280 288 277
187 190 178 170 163 167 159 159 157 155 153 154 160 154 158 176 188 184 176 189 208 226 246 257 257 258 263 267 271 277 277 277 272 272 277 277 279 280 280 280 282 283 286
182 175 168 165 171 172 163 164 166 163 155 158 159 161 170 177 185 192 203 197 212 230 249 263 267 264 261 265 273 279 282 279 276 278 278 275 282 281 282 279 276 277 277
175 172 168 172 171 167 166 170 166 162 163 166 171 170 170 175 185 198 203 205 218 229 249 256 263 271 272 283 278 275 272 270 271 267 265 271 268 272 262 263 265 266 271
177 179 176 174 170 167 172 172 166 162 160 166 169 166 170 168 186 189 194 201 217 233 250 261 262 269 281 287 289 288 292 288 283 287 286 283 280 281 281 277 268 257 264
187 181 171 172 170 174 171 168 163 158 158 164 160 166 172 169 185 196 197 180 190 220 240 261 260 279 290 292 295 300 301 302 294 293 306 306 297 286 281 269 270 265 267
151 154 167 173 172 171 161 162 158 149 154 162 162 169 178 163 196 196 202 180 187 201 231 233 260 282 290 307 308 313 298 301 318 319 300 296 293 285 284 284 258 250 254
147 155 162 163 161 158 157 153 160 156 158 161 161 174 168 180 185 197 199 207 217 161 190 254 265 289 313 311 317 308 310 319 310 304 300 293 295 294 289 288 290 281 270
152 163 162 153 153 160 157 162 155 166 160 163 173 165 166 166 184 182 199 203 224 212 154 272 318 313 319 314 309 315 319 303 301 302 297 295 298 298 294 288 284 276 273
158 163 160 160 156 160 161 168 162 175 170 167 173 155 152 159 169 185 199 218 245 249 46 323 327 325 309 307 302 308 300 299 300 293 296 296 296 298 295 292 291 286 286
170 166 168 175 173 166 174 176 167 184 180 172 171 152 155 172 187 185 190 206 203 177 113 34 341 304 311 319 310 309 304 302 298 294 303 295 298 299 295 293 285 291 283
174 172 189 179 174 172 169 168 182 175 177 172 162 130 137 157 180 178 163 132 132 76 60 59 286 291 324 309 312 312 305 303 301 303 304 292 304 302 300 301 293 285 284
195 175 172 176 181 182 180 168 157 164 159 156 145 141 155 165 171 157 134 113 111 85 115 253 263 296 299 298 302 304 307 305 309 302 305 296 303 308 310 303 295 289 284
195 189 171 174 180 175 178 170 160 162 152 148 150 148 155 161 160 152 125 109 72 14 184 164 270 284 286 287 298 298 304 304 310 303 307 300 307 312 309 304 297 293 288
183 185 181 165 176 172 167 160 158 162 136 137 141 140 157 161 155 132 111 120 142 245 80 277 250 265 274 293 290 295 298 302 305 301 306 301 314 314 309 304 298 299 292
184 180 167 158 161 166 158 147 142 146 136 144 147 136 138 95 101 114 126 117 185 231 217 256 276 258 271 279 284 294 307 308 307 305 311 305 318 315 310 308 306 302 294
168 160 156 153 159 159 154 143 139 132 137 139 133 139 152 141 141 147 140 156 222 227 251 256 268 254 272 276 287 303 308 303 302 306 308 319 321 317 315 310 308 300 297
151 151 152 150 144 146 137 132 133 128 133 137 134 172 147 129 134 131 141 205 247 250 225 248 263 244 264 281 302 303 303 303 304 309 305 326 322 320 319 317 314 311 307
140 144 141 144 142 131 126 128 125 127 130 132 131 114 130 123 130 134 157 220 263 261 250 249 262 277 268 296 300 289 296 294 303 311 312 327 324 324 324 322 320 320 317
128 135 134 132 130 122 124 123 119 124 127 127 129 131 131 141 142 114 155 270 268 281 271 261 256 255 295 302 298 295 291 292 303 302 333 328 325 327 326 326 325 326 321
116 120 121 120 122 120 119 117 119 119 121 127 132 133 127 136 120 120 239 257 263 269 280 277 263 290 301 295 292 293 295 303 308 325 336 330 331 333 332 328 332 329 330
101 102 104 108 108 110 112 116 116 118 122 128 126 121 135 133 137 176 224 251 263 285 289 276 286 300 295 292 290 301 305 310 315 352 338 332 337 337 337 334 337 337 336